Date String (YYYY-MM-DD hh:mm:ss) UTC,Instrument flags,Ambient pressure (hPa),Sample flow (lpm),Bypass flow (lpm),Sample temperature (°C),Ambient temperature (°C),ASC tube jacket temperature (°C),LED temperature (°C),Box temperature (°C),Sample RH (%),Span deviation,Mass concentration (μg/m³),Mass concentration (μg/m³),Mass concentration (μg/m³)
DateTimeUTC,F1_M11,P_M11,Q1_M11,Q2_M11,T1_M11,T2_M11,T3_M11,T4_M11,T5_M11,U1_M11,ZSPAN_M11,X0_M11,X2_M11,X1_M11
2021-10-10 01:00:00,,0820.7,5.00,0.00,29.3,28.5,00.0,38.4,31.0,10.7,0000.0,0002.03,0001.27,0001.01
2021-10-10 01:01:00,,0820.7,5.00,0.00,29.3,28.5,00.0,38.4,31.0,10.7,0000.0,0001.93,0001.25,0001.01
2021-10-10 01:02:00,,0820.7,5.00,0.00,29.3,28.5,00.0,38.4,31.0,10.7,0000.0,0001.86,0001.24,0001.00
2021-10-10 01:03:00,,0820.7,5.00,0.00,29.3,28.5,00.0,38.4,31.0,10.7,0000.0,0002.60,0001.25,0001.01
2021-10-10 01:04:00,,0820.7,5.00,0.00,29.3,28.5,00.0,38.4,31.0,10.7,0000.0,0003.02,0001.22,0001.01
2021-10-10 01:05:00,,0820.7,5.00,0.00,29.3,28.5,00.0,38.4,31.0,10.7,0000.0,0003.15,0001.24,0001.00
2021-10-10 01:06:00,,0820.7,5.00,0.00,29.2,28.5,00.0,38.4,31.0,10.7,0000.0,0003.31,0001.28,0001.01
2021-10-10 01:07:00,,0820.8,4.99,0.00,29.2,28.5,00.0,38.4,31.0,10.7,0000.0,0003.44,0001.31,0001.01
2021-10-10 01:08:00,,0820.8,5.01,0.00,29.3,28.6,00.0,38.4,31.0,10.8,0000.0,0003.51,0001.34,0001.02
2021-10-10 01:09:00,,0820.8,4.99,0.00,29.2,28.5,00.0,38.4,31.0,10.9,0000.0,0003.58,0001.37,0001.03
2021-10-10 01:10:00,,0820.8,5.00,0.00,29.2,28.5,00.0,38.4,30.9,10.9,0000.0,0003.64,0001.41,0001.03
2021-10-10 01:11:00,,0820.9,5.00,0.00,29.2,28.4,00.0,38.4,30.9,11.0,0000.0,0003.70,0001.46,0001.03
2021-10-10 01:12:00,,0820.9,5.01,0.00,29.2,28.4,00.0,38.4,30.9,11.0,0000.0,0003.74,0001.47,0001.03
2021-10-10 01:13:00,,0821.0,4.99,0.00,29.2,28.3,00.0,38.4,30.9,11.0,0000.0,0003.72,0001.45,0001.03
2021-10-10 01:14:00,,0821.0,5.00,0.00,29.1,28.4,00.0,38.3,30.9,11.1,0000.0,0003.29,0001.44,0001.03
2021-10-10 01:15:00,,0821.1,5.00,0.00,29.1,28.4,00.0,38.3,30.9,11.2,0000.0,0003.31,0001.48,0001.03
2021-10-10 01:16:00,,0821.0,4.99,0.00,29.1,28.4,00.0,38.3,30.9,11.2,0000.0,0003.35,0001.47,0001.04
2021-10-10 01:17:00,,0821.0,5.00,0.00,29.1,28.4,00.0,38.3,30.9,11.2,0000.0,0003.23,0001.44,0001.04
2021-10-10 01:18:00,,0821.1,5.00,0.00,29.1,28.4,00.0,38.3,30.9,11.2,0000.0,0003.10,0001.41,0001.03
2021-10-10 01:19:00,,0821.1,5.00,0.00,29.1,28.5,00.0,38.3,30.9,11.1,0000.0,0003.28,0001.38,0001.02
2021-10-10 01:20:00,,0821.1,5.00,0.00,29.1,28.5,00.0,38.3,30.9,11.0,0000.0,0003.85,0001.42,0001.02
2021-10-10 01:21:00,,0821.1,5.01,0.00,29.1,28.5,00.0,38.3,30.9,11.1,0000.0,0003.76,0001.38,0001.01
2021-10-10 01:22:00,,0821.1,4.99,0.00,29.1,28.5,00.0,38.3,30.9,11.1,0000.0,0003.71,0001.36,0001.02
2021-10-10 01:23:00,,0821.1,4.99,0.00,29.1,28.5,00.0,38.3,30.9,10.9,0000.0,0003.79,0001.39,0001.03
2021-10-10 01:24:00,,0821.1,5.01,0.00,29.1,28.4,00.0,38.3,30.9,10.7,0000.0,0003.80,0001.40,0001.03
2021-10-10 01:25:00,,0821.2,5.01,0.00,29.1,28.4,00.0,38.3,30.9,10.6,0000.0,0003.75,0001.41,0001.03
2021-10-10 01:26:00,,0821.3,4.99,0.00,29.1,28.4,00.0,38.3,30.9,11.0,0000.0,0002.92,0001.37,0001.03
2021-10-10 01:27:00,,0821.3,5.00,0.00,29.1,28.4,00.0,38.3,30.9,11.1,0000.0,0002.82,0001.38,0001.01
2021-10-10 01:28:00,,0821.4,5.00,0.00,29.1,28.4,00.0,38.3,30.9,11.1,0000.0,0002.79,0001.36,0001.00
2021-10-10 01:29:00,,0821.4,5.00,0.00,29.1,28.4,00.0,38.3,30.9,11.2,0000.0,0002.79,0001.37,0001.01
2021-10-10 01:30:00,,0821.4,4.99,0.00,29.1,28.4,00.0,38.3,30.8,11.2,0000.0,0002.72,0001.39,0001.00
2021-10-10 01:31:00,,0821.4,4.99,0.00,29.1,28.4,00.0,38.3,30.8,11.1,0000.0,0002.09,0001.34,0001.01
2021-10-10 01:32:00,,0821.4,5.02,0.00,29.1,28.4,00.0,38.3,30.8,11.2,0000.0,0002.02,0001.32,0001.01
2021-10-10 01:33:00,,0821.4,5.00,0.00,29.1,28.4,00.0,38.3,30.8,11.2,0000.0,0002.23,0001.31,0001.00
2021-10-10 01:34:00,,0821.4,5.00,0.00,29.1,28.4,00.0,38.3,30.8,11.2,0000.0,0003.75,0001.27,0000.98
2021-10-10 01:35:00,,0821.5,5.00,0.00,29.1,28.4,00.0,38.2,30.8,11.3,0000.0,0003.89,0001.26,0000.98
2021-10-10 01:36:00,,0821.5,5.01,0.00,29.1,28.4,00.0,38.2,30.8,11.3,0000.0,0004.86,0001.28,0000.99
2021-10-10 01:37:00,,0821.5,4.99,0.00,29.1,28.4,00.0,38.2,30.8,11.4,0000.0,0006.93,0001.29,0000.99
2021-10-10 01:38:00,,0821.5,5.00,0.00,29.1,28.3,00.0,38.2,30.9,11.4,0000.0,0007.01,0001.29,0001.00
2021-10-10 01:39:00,,0821.5,5.01,0.00,29.1,28.3,00.0,38.2,30.9,11.5,0000.0,0007.15,0001.32,0001.01
2021-10-10 01:40:00,,0821.5,4.99,0.00,29.1,28.4,00.0,38.2,30.9,11.5,0000.0,0007.18,0001.32,0001.01
2021-10-10 01:41:00,,0821.6,5.01,0.00,29.1,28.4,00.0,38.2,30.9,11.3,0000.0,0007.16,0001.34,0001.01
2021-10-10 01:42:00,,0821.6,4.99,0.00,29.1,28.4,00.0,38.2,30.9,11.4,0000.0,0007.17,0001.36,0001.01
2021-10-10 01:43:00,,0821.6,5.00,0.00,29.1,28.5,00.0,38.2,31.0,11.3,0000.0,0007.57,0001.38,0001.02
2021-10-10 01:44:00,,0821.6,5.00,0.00,29.2,28.5,00.0,38.2,31.0,11.2,0000.0,0007.65,0001.41,0001.03
2021-10-10 01:45:00,,0821.6,5.00,0.00,29.2,28.5,00.0,38.2,31.0,11.1,0000.0,0006.45,0001.45,0001.04
2021-10-10 01:46:00,,0821.5,5.00,0.00,29.2,28.5,00.0,38.2,31.0,11.0,0000.0,0006.51,0001.47,0001.05
2021-10-10 01:47:00,,0821.6,4.98,0.00,29.2,28.5,00.0,38.3,31.1,11.0,0000.0,0005.64,0001.46,0001.05
2021-10-10 01:48:00,,0821.6,5.00,0.00,29.3,28.6,00.0,38.3,31.1,10.9,0000.0,0003.68,0001.46,0001.06
2021-10-10 01:49:00,,0821.6,5.00,0.00,29.3,28.6,00.0,38.3,31.1,10.9,0000.0,0003.29,0001.46,0001.07
2021-10-10 01:50:00,,0821.6,4.99,0.00,29.3,28.6,00.0,38.3,31.1,10.9,0000.0,0003.19,0001.44,0001.07
2021-10-10 01:51:00,,0821.6,5.00,0.00,29.3,28.6,00.0,38.3,31.1,10.8,0000.0,0003.29,0001.47,0001.06
2021-10-10 01:52:00,,0821.7,5.01,0.00,29.3,28.6,00.0,38.3,31.1,10.8,0000.0,0003.28,0001.44,0001.07
2021-10-10 01:53:00,,0821.7,5.01,0.00,29.3,28.6,00.0,38.3,31.1,10.8,0000.0,0003.28,0001.44,0001.06
2021-10-10 01:54:00,,0821.7,5.00,0.00,29.3,28.6,00.0,38.3,31.1,10.9,0000.0,0002.77,0001.42,0001.05
2021-10-10 01:55:00,,0821.7,5.01,0.00,29.3,28.6,00.0,38.3,31.1,10.9,0000.0,0002.35,0001.40,0001.06
2021-10-10 01:56:00,,0821.7,5.00,0.00,29.3,28.6,00.0,38.4,31.1,10.9,0000.0,0002.27,0001.38,0001.06
2021-10-10 01:57:00,,0821.7,5.00,0.00,29.3,28.6,00.0,38.4,31.1,10.8,0000.0,0002.13,0001.35,0001.06
2021-10-10 01:58:00,,0821.7,4.99,0.00,29.3,28.6,00.0,38.4,31.1,10.7,0000.0,0002.14,0001.37,0001.06
2021-10-10 01:59:00,,0821.7,5.00,0.00,29.3,28.6,00.0,38.4,31.1,10.8,0000.0,0002.11,0001.36,0001.05
